This demonstration page uses our WeatherBlox Daily Observations layout. Learn more.

Left ArrowRight Arrow

44.31136, -96.79839

Hourly Observations for May 22, 2022

Temp ( °F °C ) Dew Point ( °F °C ) Humidity (%) Winds ( mph kmh ) Pressure ( in mb ) Visibility ( mi km ) Precip ( " mm )
12:56 am 00:56 Clear 35 1.7 34 1.1 96 96 W 6 9 30.35 1028 10 16 0.00 0.00
1:56 am 01:56 Clear 34 1.1 33 0.6 97 97 WNW 6 9 30.35 1028 10 16 0.00 0.00
2:56 am 02:56 Clear 33 0.6 31 -0.6 92 92 NW 8 13 30.35 1028 10 16 0.00 0.00
3:56 am 03:56 Clear 33 0.6 32 0 96 96 WNW 8 13 30.35 1028 10 16 0.00 0.00
4:56 am 04:56 Clear 33 0.6 32 0 96 96 NW 6 9 30.36 1028 10 16 0.00 0.00
5:56 am 05:56 Sunny 30 -1.1 30 -1.1 100 100 Calm 30.39 1029 10 16 0.00 0.00
6:56 am 06:56 Sunny 38 3.3 31 -0.6 76 76 Calm 30.40 1030 10 16 0.00 0.00
7:56 am 07:56 Sunny 43 6.1 34 1.1 71 71 WSW 3 6 30.43 1030 10 16 0.00 0.00
8:56 am 08:56 Sunny 47 8.3 35 1.7 63 63 WNW 7 11 30.45 1031 10 16 0.00 0.00
9:56 am 09:56 Sunny 51 10.6 30 -1.1 44 44 WNW 8 13 30.45 1031 10 16 0.00 0.00
10:56 am 10:56 Sunny 53 11.7 27 -2.8 37 37 NW 8 13 30.46 1031 10 16 0.00 0.00
11:56 am 11:56 Partly Cloudy 57 13.9 27 -2.8 32 32 WSW 5 7 30.46 1031 10 16 0.00 0.00
12:56 pm 12:56 Mostly Cloudy 52 11.1 28 -2.2 40 40 WSW 8 13 30.46 1032 10 16 0.00 0.00
1:56 pm 13:56 Cloudy 53 11.7 31 -0.6 43 43 W 9 15 30.45 1031 10 16 0.00 0.00
2:56 pm 14:56 Cloudy 54 12.2 30 -1.1 40 40 WNW 9 15 30.43 1030 10 16 0.00 0.00
3:56 pm 15:56 Cloudy 57 13.9 28 -2.2 33 33 WNW 9 15 30.40 1029 10 16 0.00 0.00
4:56 pm 16:56 Partly Cloudy 60 15.6 27 -2.8 28 28 W 8 13 30.38 1029 10 16 0.00 0.00
5:56 pm 17:56 Partly Cloudy 58 14.4 28 -2.2 32 32 VRB 6 9 30.38 1029 10 16 0.00 0.00
6:56 pm 18:56 Mostly Sunny 57 13.9 27 -2.8 32 32 NW 6 9 30.37 1029 10 16 0.00 0.00
7:56 pm 19:56 Sunny 54 12.2 26 -3.3 34 34 Calm 30.37 1028 10 16 0.00 0.00
8:56 pm 20:56 Clear 51 10.6 28 -2.2 41 41 NNE 5 7 30.37 1029 10 16 0.00 0.00
9:56 pm 21:56 Clear 49 9.4 27 -2.8 43 43 E 3 6 30.38 1029 10 16 0.00 0.00
10:56 pm 22:56 Clear 46 7.8 29 -1.7 51 51 SE 7 11 30.39 1029 10 16 0.00 0.00
11:56 pm 23:56 Clear 44 6.7 31 -0.6 60 60 SE 8 13 30.39 1029 10 16 0.00 0.00

Powered by AerisWeather